| time (UTC) | temp F | wind direction | speed knots | gust knots | rain 1hr in | rain 24hr in | rain mn in | humidity % | barometer mb |
| 20260506113014 | 0 | 0.0 | 0.0 | 0.00 | 0.00 | 0.00 | 1015.5 | ||
| 20260506111515 | 0 | 325 | 4.3 | 5.2 | 0.00 | 0.00 | 0.00 | 1015.3 | |
| 20260506110020 | 35 | 321 | 3.5 | 5.2 | 0.00 | 0.00 | 0.00 | 71 | 1015.2 |
| 20260506104516 | 35 | 319 | 2.6 | 4.3 | 0.00 | 0.00 | 0.00 | 71 | 1015.3 |
| 20260506103016 | 35 | 324 | 2.6 | 4.3 | 0.00 | 0.00 | 0.00 | 72 | 1015.2 |
| 20260506101519 | 35 | 306 | 1.7 | 5.2 | 0.00 | 0.00 | 0.00 | 71 | 1015.3 |
| 20260506100024 | 36 | 297 | 1.7 | 5.2 | 0.00 | 0.00 | 0.00 | 69 | 1014.9 |
| 20260506094519 | 36 | 336 | 4.3 | 5.2 | 0.00 | 0.00 | 0.00 | 68 | 1014.7 |
| 20260506093019 | 37 | 330 | 4.3 | 6.1 | 0.00 | 0.00 | 0.00 | 67 | 1014.6 |
| 20260506091522 | 36 | 339 | 2.6 | 6.1 | 0.00 | 0.00 | 0.00 | 68 | 1014.6 |
| 20260506090021 | 37 | 329 | 3.5 | 6.1 | 0.00 | 0.00 | 0.00 | 67 | 1014.6 |
| 20260506084523 | 38 | 340 | 5.2 | 8.7 | 0.00 | 0.00 | 0.00 | 66 | 1014.6 |
| 20260506083021 | 37 | 330 | 5.2 | 7.0 | 0.00 | 0.00 | 0.00 | 66 | 1014.4 |
| 20260506081523 | 37 | 293 | 2.6 | 4.3 | 0.00 | 0.00 | 0.00 | 66 | 1014.5 |
| 20260506073025 | 36 | 292 | 1.7 | 3.5 | 0.00 | 0.00 | 0.00 | 68 | 1014.0 |
| 20260506071524 | 38 | 290 | 2.6 | 4.3 | 0.00 | 0.00 | 0.00 | 65 | 1013.7 |
| 20260506061519 | 39 | 304 | 2.6 | 3.5 | 0.00 | 0.00 | 0.00 | 61 | 1013.9 |
| 20260506044515 | 41 | 316 | 1.7 | 3.5 | 0.00 | 0.00 | 0.00 | 55 | 1013.2 |
| 20260506043007 | 41 | 306 | 0.9 | 1.7 | 0.00 | 0.00 | 0.00 | 54 | 1013.3 |
| 20260506041506 | 41 | 292 | 0.9 | 2.6 | 0.00 | 0.00 | 0.00 | 56 | 1013.4 |
| 20260506040004 | 43 | 318 | 0.0 | 1.7 | 0.00 | 0.00 | 0.00 | 49 | 1013.3 |
| 20260506034503 | 43 | 300 | 0.9 | 1.7 | 0.00 | 0.00 | 0.00 | 50 | 1013.3 |
| 20260506033002 | 44 | 300 | 0.9 | 1.7 | 0.00 | 0.00 | 0.00 | 48 | 1013.2 |
| 20260506031605 | 44 | 310 | 1.7 | 2.6 | 0.00 | 0.00 | 0.00 | 48 | 1013.2 |
| 20260506030125 | 44 | 303 | 2.6 | 4.3 | 0.00 | 0.00 | 0.00 | 47 | 1013.2 |
| 20260506024602 | 45 | 305 | 2.6 | 4.3 | 0.00 | 0.00 | 0.00 | 47 | 1013.2 |
| 20260506023059 | 45 | 327 | 4.3 | 7.0 | 0.00 | 0.00 | 0.00 | 46 | 1013.1 |
| 20260506021600 | 45 | 319 | 5.2 | 7.8 | 0.00 | 0.00 | 0.00 | 46 | 1012.8 |
| 20260506020053 | 46 | 324 | 4.3 | 6.1 | 0.00 | 0.00 | 0.00 | 45 | 1012.6 |
| 20260506014558 | 46 | 318 | 4.3 | 6.1 | 0.00 | 0.00 | 0.00 | 45 | 1012.3 |
| 20260506013051 | 46 | 341 | 4.3 | 6.1 | 0.00 | 0.00 | 0.00 | 45 | 1012.1 |
| 20260506011544 | 47 | 328 | 5.2 | 7.8 | 0.00 | 0.00 | 0.00 | 43 | 1012.1 |
| 20260506010051 | 47 | 325 | 6.1 | 8.7 | 0.00 | 0.00 | 0.00 | 42 | 1012.0 |
| 20260506004549 | 48 | 328 | 7.0 | 10.4 | 0.00 | 0.00 | 0.00 | 41 | 1011.8 |
| 20260506003042 | 48 | 321 | 4.3 | 8.7 | 0.00 | 0.00 | 0.00 | 42 | 1011.7 |
| 20260506001538 | 48 | 330 | 7.8 | 12.2 | 0.00 | 0.00 | 0.00 | 41 | 1011.5 |
| 20260506000033 | 49 | 313 | 12.2 | 18.2 | 0.00 | 0.00 | 0.00 | 39 | 1011.5 |
| 20260505234533 | 49 | 308 | 8.7 | 16.5 | 0.00 | 0.00 | 0.00 | 40 | 1011.4 |
| 20260505233027 | 49 | 320 | 7.8 | 13.9 | 0.00 | 0.00 | 0.00 | 41 | 1011.4 |
| 20260505231527 | 49 | 283 | 7.0 | 12.2 | 0.00 | 0.00 | 0.00 | 40 | 1011.4 |
| 20260505230028 | 49 | 288 | 8.7 | 13.0 | 0.00 | 0.00 | 0.00 | 39 | 1011.4 |
| 20260505224522 | 50 | 307 | 7.0 | 16.5 | 0.00 | 0.00 | 0.00 | 39 | 1011.5 |
| 20260505223017 | 50 | 297 | 8.7 | 13.9 | 0.00 | 0.00 | 0.00 | 39 | 1011.5 |
| 20260505221519 | 50 | 290 | 6.1 | 15.6 | 0.00 | 0.00 | 0.00 | 38 | 1011.2 |
| 20260505220010 | 50 | 271 | 7.8 | 18.2 | 0.00 | 0.00 | 0.00 | 38 | 1011.3 |
| 20260505214508 | 51 | 286 | 8.7 | 22.6 | 0.00 | 0.00 | 0.00 | 38 | 1011.1 |
| 20260505213008 | 52 | 285 | 7.8 | 15.6 | 0.00 | 0.00 | 0.00 | 39 | 1011.3 |
| 20260505211504 | 50 | 298 | 6.1 | 13.9 | 0.00 | 0.00 | 0.00 | 39 | 1011.3 |